Location: NJAA Observatory
(40.6819°N, 74.8979°W)
Time: 23:34:17
(UTC-04:00)

Iridium 4 - Visible Passes

Search period start: 22 August 2014 00:00
Search period end: 01 September 2014 00:00
Orbit: 774 x 777 km, 86.4° (Epoch: 22 August)

Date Brightness Start Highest point End Pass type
(mag) Time Alt. Az. Time Alt. Az. Time Alt. Az.
22 Aug 6.4 04:32:24 10° SSE 04:37:23 49° E 04:42:23 10° NNE visible
23 Aug 7.5 03:59:20 10° SE 04:03:36 26° E 04:07:53 10° NNE visible
23 Aug 6.2 05:39:25 10° SW 05:44:06 34° W 05:48:50 10° NNW visible
24 Aug 8.2 03:27:15 10° ESE 03:29:57 14° ENE 03:32:39 10° NE visible
24 Aug 5.5 05:04:52 10° SSW 05:10:00 64° W 05:15:11 10° N visible
25 Aug 5.8 04:30:53 10° S 04:36:02 69° E 04:41:13 10° N visible
26 Aug 6.9 03:57:39 11° SSE 04:02:11 37° E 04:06:56 10° NNE visible
26 Aug 6.6 05:38:45 10° SW 05:42:57 25° WNW 05:47:10 10° NNW visible
27 Aug 7.8 03:24:46 10° SE 03:28:28 20° E 03:32:11 10° NE visible
27 Aug 5.8 05:04:52 16° SSW 05:08:46 45° W 05:13:46 10° N visible
28 Aug 8.4 02:53:56 10° E 02:54:53 11° ENE 02:55:49 10° ENE visible
28 Aug 5.4 04:31:34 24° S 04:34:44 84° W 04:39:58 10° N visible
29 Aug 6.2 03:58:14 27° SSE 04:00:49 52° E 04:05:51 10° NNE visible
29 Aug 7.0 05:38:43 11° WSW 05:41:50 18° WNW 05:45:18 10° NNW visible
30 Aug 7.3 03:24:52 21° ESE 03:27:02 28° E 03:31:24 10° NNE visible
30 Aug 6.3 05:05:21 23° WSW 05:07:34 32° W 05:12:13 10° NNW visible
31 Aug 8.0 02:51:28 13° ESE 02:53:22 15° ENE 02:56:16 10° NE visible
31 Aug 5.5 04:31:57 42° SW 04:33:28 60° W 04:38:37 10° N visible
